Location: Chiroubles
(46.1812°N, 4.6660°E)
Time: 17:06:33
(UTC+00:00)

Cosmos 2297 Rocket - Pass Details

Date: 15 August 2020
Orbit: 838 x 845 km, 71.0° (Epoch: 22 September)

Event Time Altitude Azimuth Distance (km) Brightness Sun altitude
Exits shadow 22:32:32 20° 73° (ENE) 1,878 3.9 -27.9°
Drops below altitude 10° 22:34:56 10° 51° (NE) 2,464 4.8 -28.1°
Sets 22:37:49 0° 38° (NE) 3,405 5.8 -28.2°
